Location: Feigenhofen
(48.4939°N, 10.7793°E)
Time: 15:55:54
(UTC+00:00)

ALOS - Pass Details

Date: 26 May 2022
Orbit: 682 x 683 km, 97.9° (Epoch: 29 June)

Event Time Altitude Azimuth Distance (km) Brightness Sun altitude
Rises 02:29:49 0° 18° (NNE) 3,058 6.9 -7.8°
Reaches altitude 10° 02:32:08 10° 24° (NNE) 2,137 6.1 -7.5°
Maximum altitude 02:36:40 49° 99° (E) 885 3.2 -7.0°
Drops below altitude 10° 02:41:10 10° 174° (S) 2,121 4.5 -6.5°
Sets 02:43:28 0° 180° (S) 3,031 5.2 -6.2°
